Location: M.A.R.S.Observatory
(35.4031°N, 81.5481°W)
Time: 09:58:52
(UTC-04:00)

SL-8 R/B - Visible Passes

Search period start: 23 August 2017 00:00
Search period end: 02 September 2017 00:00
Orbit: 657 x 668 km, 48.4° (Epoch: 23 August)

Date Brightness Start Highest point End Pass type
(mag) Time Alt. Az. Time Alt. Az. Time Alt. Az.
23 Aug 4.1 22:04:11 10° NW 22:08:50 48° NNE 22:09:13 47° NE visible
23 Aug 6.6 23:46:59 10° WNW 23:47:12 11° WNW 23:47:12 11° WNW visible
24 Aug 5.1 20:52:55 10° NW 20:57:02 28° NNE 21:00:48 12° ENE visible
24 Aug 4.4 22:35:09 10° NW 22:38:47 51° WNW 22:38:47 51° WNW visible
25 Aug 4.1 21:23:46 10° NW 21:28:26 51° NNE 21:30:25 31° E visible
25 Aug 6.0 23:06:40 10° WNW 23:08:23 19° W 23:08:23 19° W visible
26 Aug 3.7 21:54:46 10° WNW 21:59:32 71° SW 22:00:05 63° S visible
27 Aug 4.0 20:43:20 10° NW 20:48:03 54° NNE 20:51:51 15° ESE visible
27 Aug 5.3 22:26:20 10° WNW 22:29:51 26° WSW 22:29:51 26° WSW visible
28 Aug 3.9 21:14:23 10° WNW 21:19:07 66° SW 21:21:41 26° SE visible
29 Aug 5.4 21:46:02 10° WNW 21:49:55 25° SW 21:51:37 20° SSW visible
30 Aug 4.1 20:33:59 10° WNW 20:38:42 61° SW 20:43:25 10° SE visible
31 Aug 5.6 21:05:44 10° W 21:09:29 23° SW 21:13:15 10° S visible
